KAZSTSAT

Last updated on Sat Apr 13 2024 01:02:25 GMT+0100 (British Summer Time)

1 43783U 18099AB 24103.11117878 .00001455 00000+0 13417-3 0 9999 2 43783 97.5352 156.6320 0007034 191.5437 168.5625 14.96122733292100
UTC large
Height (km)
Speed (km/s)
/
Latitude / Longitude
Inclination (degrees)
Orbital Period (minutes)
Azimuth
Elevation
Range (km)
Doppler Factor

Next 0 passes for location: London (51.5072 / 0.1276)

Sorry there are no passes over London.